This is the latest recevied weather packets stored in our database for station/object SA3ARQ-13. If no packets are shown the sender has not sent any weather packets the latest 10 day(s).
| Time | Temp. | Humidity | Pressure | Rain* | Wind** | Luminosity | Snow |
|---|---|---|---|---|---|---|---|
| 1777698428 | 16.67° C | 38% | 1010 hPa | - | - | - | - |
| 1777697528 | 16.67° C | 38% | 1010 hPa | - | - | - | - |
| 1777696628 | 16.11° C | 39% | 1010 hPa | - | - | - | - |
| 1777695728 | 16.11° C | 39% | 1010.2 hPa | - | - | - | - |
| 1777694828 | 15.56° C | 40% | 1010.3 hPa | - | - | - | - |
| 1777693928 | 15.56° C | 41% | 1010.3 hPa | - | - | - | - |
| 1777693028 | 15.56° C | 40% | 1010.4 hPa | - | - | - | - |
| 1777692128 | 16.11° C | 41% | 1010.5 hPa | - | - | - | - |
| 1777691228 | 16.11° C | 41% | 1010.8 hPa | - | - | - | - |
| 1777690328 | 16.11° C | 41% | 1010.9 hPa | - | - | - | - |
| 1777689428 | 16.67° C | 41% | 1011.1 hPa | - | - | - | - |
| 1777688528 | 16.67° C | 41% | 1011 hPa | - | - | - | - |
| 1777687628 | 16.67° C | 41% | 1011.2 hPa | - | - | - | - |
| 1777686728 | 17.22° C | 40% | 1011.4 hPa | - | - | - | - |
| 1777685828 | 17.22° C | 40% | 1011.4 hPa | - | - | - | - |
| 1777684927 | 17.22° C | 40% | 1011.4 hPa | - | - | - | - |
| 1777684028 | 17.78° C | 41% | 1011.6 hPa | - | - | - | - |
| 1777683128 | 17.78° C | 40% | 1011.7 hPa | - | - | - | - |
| 1777682227 | 18.33° C | 41% | 1011.9 hPa | - | - | - | - |
| 1777681327 | 18.33° C | 40% | 1012.1 hPa | - | - | - | - |
| 1777680427 | 18.33° C | 40% | 1012.3 hPa | - | - | - | - |
| 1777679527 | 18.89° C | 40% | 1012.3 hPa | - | - | - | - |
| 1777678627 | 18.89° C | 39% | 1012.5 hPa | - | - | - | - |
| 1777677727 | 19.44° C | 39% | 1012.5 hPa | - | - | - | - |
| 1777676827 | 19.44° C | 39% | 1012.6 hPa | - | - | - | - |
* Rain since midnight (hover to see other rain measurements)
** Current wind speed in m/s (hover to see current wind gust speed)